When you browse on this site, cookies collect data to enhance your experience and personalize the content and advertising you see.
Visit our Privacy Policy to learn more. By continuing to use the site, you agree to this use of cookies and data.
  • In Hungary
  • List of Countries
  • For 7 days
  • Water Temperature
  • Satellite Maps
  • Weather Map
  • News
  • Weather Widgets
  • user-avatar
    Login

    Hourly Weather Vicente Guerrero

    Today, 24 February, Sunday

    Time Temperature Precipitation Wind Pressure Humidity
    00:00 +16°C° 0 mm 2 mps 581 mmHg 47%
    01:00 +15°C° 0 mm 2 mps 581 mmHg 50%
    02:00 +15°C° 0 mm 2 mps 580 mmHg 53%
    03:00 +14°C° 0 mm 2 mps 580 mmHg 54%
    04:00 +14°C° 0 mm 2 mps 580 mmHg 54%
    05:00 +12°C° 0 mm 3 mps 580 mmHg 55%
    06:00 +13°C° 0 mm 3 mps 581 mmHg 52%
    07:00 +14°C° 0 mm 3 mps 582 mmHg 49%
    08:00 +16°C° 0 mm 3 mps 583 mmHg 46%
    09:00 +18°C° 0 mm 3 mps 584 mmHg 41%
    10:00 +20°C° 0 mm 3 mps 584 mmHg 36%
    11:00 +22°C° 0 mm 3 mps 585 mmHg 31%
    12:00 +22°C° 0 mm 4 mps 585 mmHg 31%
    13:00 +23°C° 0 mm 4 mps 584 mmHg 32%
    14:00 +23°C° 0 mm 4 mps 584 mmHg 32%
    15:00 +22°C° 0 mm 4 mps 583 mmHg 37%
    16:00 +21°C° 0 mm 4 mps 583 mmHg 42%
    17:00 +20°C° 0 mm 4 mps 582 mmHg 47%
    18:00 +18°C° 0 mm 4 mps 582 mmHg 54%
    19:00 +17°C° 0 mm 4 mps 582 mmHg 60%
    20:00 +14°C° 0 mm 3 mps 582 mmHg 66%
    21:00 +14°C° 0 mm 3 mps 582 mmHg 69%
    22:00 +13°C° 0 mm 3 mps 582 mmHg 71%
    23:00 +14°C° 0 mm 2 mps 582 mmHg 73%

    Tomorrow, 25 February, Monday

    Time Temperature Precipitation Wind Pressure Humidity
    00:00 +13°C° 0 mm 2 mps 581 mmHg 74%
    01:00 +13°C° 0 mm 2 mps 581 mmHg 76%
    02:00 +13°C° 0 mm 1 mps 580 mmHg 77%
    03:00 +12°C° 0 mm 1 mps 580 mmHg 77%
    04:00 +12°C° 0 mm 1 mps 580 mmHg 78%
    05:00 +12°C° 0 mm 1 mps 580 mmHg 78%
    06:00 +13°C° 0 mm 1 mps 581 mmHg 71%
    07:00 +15°C° 0 mm 2 mps 582 mmHg 63%
    08:00 +16°C° 0 mm 2 mps 583 mmHg 56%
    09:00 +19°C° 0 mm 1 mps 584 mmHg 48%
    10:00 +21°C° 0 mm 1 mps 585 mmHg 41%
    11:00 +23°C° 0 mm 1 mps 585 mmHg 33%
    12:00 +24°C° 0 mm 2 mps 585 mmHg 31%
    13:00 +25°C° 0 mm 2 mps 584 mmHg 29%
    14:00 +25°C° 0 mm 3 mps 584 mmHg 27%
    15:00 +25°C° 0.1 mm 3 mps 583 mmHg 30%
    16:00 +23°C° 0.1 mm 4 mps 583 mmHg 33%
    17:00 +22°C° 0.1 mm 4 mps 583 mmHg 37%
    18:00 +20°C° 0.6 mm 3 mps 583 mmHg 44%
    19:00 +19°C° 0.6 mm 2 mps 583 mmHg 52%
    20:00 +18°C° 0.6 mm 1 mps 583 mmHg 60%
    21:00 +18°C° 0.5 mm 1 mps 583 mmHg 61%
    22:00 +18°C° 0.5 mm 1 mps 583 mmHg 63%
    23:00 +16°C° 0.5 mm 1 mps 582 mmHg 64%

    Day after tomorrow, 26 February, Tuesday

    Time Temperature Precipitation Wind Pressure Humidity
    00:00 +16°C° 0.1 mm 1 mps 582 mmHg 65%
    01:00 +15°C° 0.1 mm 1 mps 581 mmHg 67%
    02:00 +14°C° 0.1 mm 0 mps 581 mmHg 68%
    03:00 +13°C° 0 mm 0 mps 581 mmHg 69%
    04:00 +13°C° 0 mm 0 mps 581 mmHg 70%
    05:00 +14°C° 0 mm 1 mps 581 mmHg 71%
    06:00 +15°C° 0 mm 1 mps 581 mmHg 65%
    07:00 +16°C° 0 mm 1 mps 582 mmHg 59%
    08:00 +19°C° 0 mm 1 mps 583 mmHg 53%
    09:00 +21°C° 0 mm 1 mps 584 mmHg 46%
    10:00 +23°C° 0 mm 1 mps 585 mmHg 39%
    11:00 +24°C° 0 mm 1 mps 585 mmHg 32%
    12:00 +25°C° 0 mm 1 mps 585 mmHg 29%
    13:00 +26°C° 0 mm 2 mps 584 mmHg 26%
    14:00 +27°C° 0 mm 2 mps 584 mmHg 23%
    15:00 +26°C° 0 mm 2 mps 583 mmHg 25%
    16:00 +25°C° 0 mm 2 mps 583 mmHg 27%
    17:00 +24°C° 0 mm 2 mps 583 mmHg 30%
    18:00 +23°C° 0 mm 2 mps 583 mmHg 35%
    19:00 +21°C° 0 mm 1 mps 583 mmHg 40%
    20:00 +18°C° 0 mm 0 mps 583 mmHg 45%
    21:00 +19°C° 0.1 mm 1 mps 583 mmHg 48%
    22:00 +19°C° 0.1 mm 1 mps 582 mmHg 51%
    23:00 +18°C° 0.1 mm 1 mps 582 mmHg 54%

    27 February, Wednesday

    Time Temperature Precipitation Wind Pressure Humidity
    00:00 +18°C° 0 mm 1 mps 582 mmHg 56%
    01:00 +16°C° 0 mm 1 mps 581 mmHg 59%
    02:00 +15°C° 0 mm 1 mps 580 mmHg 62%
    03:00 +15°C° 0 mm 1 mps 580 mmHg 63%
    04:00 +14°C° 0 mm 1 mps 580 mmHg 64%
    05:00 +14°C° 0 mm 1 mps 580 mmHg 66%
    06:00 +15°C° 0 mm 1 mps 581 mmHg 59%
    07:00 +18°C° 0 mm 1 mps 582 mmHg 53%
    08:00 +19°C° 0 mm 1 mps 583 mmHg 47%
    09:00 +21°C° 0 mm 1 mps 584 mmHg 39%
    10:00 +23°C° 0 mm 1 mps 584 mmHg 31%
    11:00 +25°C° 0 mm 1 mps 585 mmHg 23%
    12:00 +26°C° 0 mm 1 mps 584 mmHg 20%
    13:00 +27°C° 0 mm 1 mps 584 mmHg 18%
    14:00 +27°C° 0 mm 2 mps 584 mmHg 16%
    15:00 +27°C° 0 mm 2 mps 583 mmHg 18%
    16:00 +26°C° 0 mm 2 mps 583 mmHg 20%
    17:00 +25°C° 0 mm 2 mps 583 mmHg 22%
    18:00 +23°C° 0 mm 2 mps 583 mmHg 27%
    19:00 +22°C° 0 mm 1 mps 583 mmHg 33%
    20:00 +18°C° 0 mm 0 mps 582 mmHg 38%
    21:00 +19°C° 0 mm 1 mps 582 mmHg 40%
    22:00 +19°C° 0 mm 1 mps 582 mmHg 43%
    23:00 +18°C° 0 mm 1 mps 581 mmHg 45%

    28 February, Thursday

    Time Temperature Precipitation Wind Pressure Humidity
    00:00 +16°C° 0 mm 1 mps 581 mmHg 47%
    01:00 +16°C° 0 mm 1 mps 580 mmHg 49%
    02:00 +15°C° 0 mm 1 mps 580 mmHg 51%
    03:00 +15°C° 0 mm 1 mps 580 mmHg 52%
    04:00 +14°C° 0 mm 1 mps 579 mmHg 53%
    05:00 +14°C° 0 mm 1 mps 579 mmHg 55%
    06:00 +15°C° 0 mm 1 mps 580 mmHg 50%
    07:00 +16°C° 0 mm 0 mps 581 mmHg 46%
    08:00 +17°C° 0 mm 0 mps 582 mmHg 41%
    09:00 +21°C° 0 mm 1 mps 583 mmHg 34%
    10:00 +23°C° 0 mm 1 mps 583 mmHg 27%
    11:00 +25°C° 0 mm 2 mps 583 mmHg 20%
    12:00 +26°C° 0 mm 2 mps 583 mmHg 19%
    13:00 +26°C° 0 mm 3 mps 583 mmHg 18%
    14:00 +27°C° 0 mm 3 mps 582 mmHg 16%
    15:00 +26°C° 0 mm 4 mps 582 mmHg 19%
    16:00 +25°C° 0 mm 4 mps 581 mmHg 22%
    17:00 +23°C° 0 mm 4 mps 581 mmHg 25%
    18:00 +22°C° 0 mm 3 mps 581 mmHg 29%
    19:00 +20°C° 0 mm 2 mps 581 mmHg 33%
    20:00 +19°C° 0 mm 1 mps 580 mmHg 37%
    21:00 +19°C° 0 mm 1 mps 580 mmHg 38%
    22:00 +18°C° 0 mm 1 mps 580 mmHg 40%
    23:00 +16°C° 0 mm 0 mps 580 mmHg 41%

    1 March, Friday

    Time Temperature Precipitation Wind Pressure Humidity
    00:00 +15°C° 0 mm 0 mps 579 mmHg 42%
    01:00 +15°C° 0 mm 0 mps 579 mmHg 44%
    02:00 +14°C° 0 mm 0 mps 578 mmHg 45%
    03:00 +14°C° 0 mm 0 mps 578 mmHg 46%
    04:00 +13°C° 0 mm 0 mps 578 mmHg 47%
    05:00 +13°C° 0 mm 0 mps 578 mmHg 48%
    06:00 +14°C° 0 mm 0 mps 579 mmHg 45%
    07:00 +18°C° 0 mm 1 mps 580 mmHg 42%
    08:00 +19°C° 0 mm 1 mps 581 mmHg 39%
    09:00 +21°C° 0 mm 1 mps 581 mmHg 35%
    10:00 +23°C° 0 mm 2 mps 582 mmHg 31%
    11:00 +25°C° 0 mm 2 mps 582 mmHg 28%
    12:00 +26°C° 0 mm 3 mps 582 mmHg 27%
    13:00 +27°C° 0 mm 3 mps 582 mmHg 26%
    14:00 +27°C° 0 mm 4 mps 582 mmHg 25%
    15:00 +26°C° 0 mm 4 mps 581 mmHg 29%
    16:00 +25°C° 0 mm 4 mps 581 mmHg 32%
    17:00 +23°C° 0 mm 4 mps 581 mmHg 36%
    18:00 +22°C° 0.1 mm 3 mps 581 mmHg 41%
    19:00 +20°C° 0.1 mm 2 mps 580 mmHg 46%
    20:00 +20°C° 0.1 mm 1 mps 580 mmHg 51%
    21:00 +19°C° 0.1 mm 1 mps 580 mmHg 52%
    22:00 +19°C° 0.1 mm 1 mps 580 mmHg 53%
    23:00 +18°C° 0.1 mm 1 mps 580 mmHg 55%
    Show more